Total_Precipitation_Accumulation
0.22 0.21 0.33 0.24 0.17 0.18 0.20 0.23 0.25 0.27 0.27 0.26 0.26 0.28 0.27 0.25 0.26 0.29 0.38 0.51 0.52 0.53 0.52 0.53 0.64 0.69 0.64 0.62 0.63 0.59 0.53 0.52 0.55 0.58 0.59 0.66 0.73 0.91 1.11 1.02 0.99 0.70 0.65
0.12 0.13 0.29 0.23 0.16 0.17 0.19 0.24 0.24 0.24 0.24 0.24 0.26 0.28 0.29 0.32 0.34 0.37 0.43 0.56 0.55 0.53 0.47 0.52 0.58 0.58 0.57 0.51 0.47 0.44 0.43 0.49 0.54 0.63 0.60 0.58 0.74 0.99 1.12 1.03 1.08 0.64 0.56
0.10 0.12 0.20 0.25 0.18 0.16 0.18 0.23 0.26 0.25 0.23 0.22 0.23 0.26 0.32 0.42 0.51 0.49 0.51 0.61 0.66 0.60 0.54 0.56 0.50 0.46 0.46 0.39 0.36 0.36 0.40 0.51 0.59 0.75 0.80 0.66 0.57 1.00 1.13 1.02 0.75 0.49 0.52
0.10 0.13 0.15 0.21 0.21 0.19 0.18 0.22 0.25 0.26 0.25 0.25 0.28 0.28 0.31 0.36 0.41 0.42 0.49 0.57 0.63 0.59 0.53 0.42 0.38 0.35 0.33 0.26 0.27 0.31 0.39 0.53 0.69 0.93 1.12 0.92 0.53 0.84 1.00 0.85 0.62 0.49 0.50
0.15 0.12 0.20 0.26 0.27 0.24 0.19 0.22 0.25 0.28 0.29 0.29 0.29 0.29 0.30 0.32 0.37 0.37 0.42 0.49 0.48 0.42 0.37 0.33 0.33 0.29 0.26 0.21 0.23 0.31 0.40 0.54 0.70 0.96 1.00 1.00 0.90 0.85 0.83 0.78 0.67 0.64 0.60
0.21 0.18 0.23 0.30 0.30 0.29 0.25 0.24 0.28 0.31 0.32 0.30 0.30 0.29 0.30 0.33 0.35 0.35 0.35 0.40 0.39 0.37 0.33 0.34 0.35 0.32 0.26 0.22 0.23 0.28 0.38 0.56 0.68 0.66 0.69 0.80 0.79 0.79 0.77 0.84 0.84 0.76 0.67
0.41 0.35 0.34 0.40 0.39 0.36 0.29 0.27 0.27 0.29 0.34 0.33 0.31 0.30 0.29 0.31 0.34 0.33 0.33 0.32 0.32 0.34 0.34 0.35 0.36 0.30 0.33 0.33 0.29 0.31 0.42 0.62 0.65 0.59 0.58 0.86 0.81 0.62 0.79 0.98 1.10 0.95 0.75
0.55 0.53 0.47 0.49 0.48 0.47 0.38 0.34 0.35 0.34 0.33 0.34 0.33 0.29 0.28 0.28 0.31 0.32 0.32 0.29 0.25 0.25 0.29 0.34 0.39 0.35 0.35 0.39 0.34 0.33 0.42 0.53 0.49 0.53 0.49 0.64 0.57 0.58 0.79 1.03 1.13 1.04 0.89
0.68 0.65 0.58 0.55 0.50 0.54 0.50 0.43 0.43 0.42 0.40 0.39 0.36 0.31 0.28 0.27 0.29 0.30 0.30 0.29 0.26 0.26 0.28 0.31 0.35 0.34 0.32 0.36 0.41 0.41 0.48 0.61 0.60 0.64 0.55 0.67 0.61 0.72 0.93 1.10 1.18 1.13 1.07
1.03 0.82 0.69 0.69 0.68 0.66 0.63 0.54 0.52 0.46 0.46 0.46 0.41 0.38 0.37 0.37 0.34 0.37 0.35 0.34 0.35 0.35 0.32 0.31 0.35 0.34 0.36 0.34 0.39 0.52 0.68 0.63 0.51 0.63 0.75 0.64 0.66 0.92 1.20 1.25 1.32 1.33 1.27
1.38 1.14 0.93 0.83 0.82 0.78 0.71 0.65 0.69 0.66 0.62 0.60 0.58 0.55 0.51 0.50 0.52 0.55 0.50 0.56 0.56 0.56 0.57 0.56 0.58 0.55 0.53 0.43 0.49 0.71 0.74 0.56 0.65 0.87 0.93 0.72 0.84 1.18 1.45 1.49 1.48 1.49 1.47
1.52 1.23 1.14 1.05 0.92 0.86 0.75 0.81 1.00 0.91 0.83 0.82 0.88 0.81 0.80 0.87 0.83 0.64 0.72 0.93 1.07 1.13 1.09 1.16 1.27 1.02 0.81 0.82 1.29 1.34 0.70 0.64 0.87 1.01 1.03 0.91 1.14 1.53 1.70 1.77 1.73 1.63 1.58
1.79 1.47 1.37 1.27 1.17 1.17 1.24 1.11 1.14 1.12 1.14 1.10 1.14 1.17 1.17 1.04 0.92 0.88 1.03 1.28 1.48 1.54 1.50 1.79 1.81 1.32 1.38 1.71 1.82 1.57 0.98 0.92 1.14 1.15 1.33 1.35 1.40 1.82 2.23 2.23 2.15 1.94 1.78
2.14 1.82 1.63 1.54 1.53 1.54 1.49 1.42 1.31 1.32 1.32 1.36 1.44 1.43 1.52 1.58 1.48 1.47 1.53 1.59 1.77 1.90 2.13 2.22 2.33 2.03 2.01 1.89 1.75 1.63 1.48 1.54 1.46 1.71 2.09 1.90 1.64 1.90 2.55 2.70 2.59 2.38 1.99
2.34 2.03 1.98 1.77 1.67 1.70 1.78 1.83 1.66 1.73 1.68 1.65 1.76 1.83 1.89 2.07 2.05 2.02 1.90 1.90 1.84 2.03 2.24 2.55 2.48 2.73 2.67 2.37 2.00 1.84 1.86 1.91 1.80 2.00 2.28 2.32 2.16 2.17 2.83 3.23 3.13 2.85 2.43
2.30 2.12 2.08 1.95 2.00 2.09 2.06 2.08 2.14 2.16 2.13 2.07 2.03 2.07 2.12 2.31 2.51 2.43 2.22 2.20 2.08 2.14 2.45 2.70 2.74 3.14 2.98 2.82 2.36 2.19 2.05 2.01 1.98 2.15 2.37 2.54 2.47 2.43 2.78 3.21 3.45 3.36 2.96
2.09 2.17 2.32 2.44 2.62 2.73 2.71 2.64 2.56 2.61 2.52 2.51 2.63 2.63 2.66 2.63 2.66 2.53 2.39 2.29 2.40 2.53 2.68 2.72 2.84 3.17 2.93 2.84 2.68 2.49 2.29 2.12 2.03 2.19 2.48 2.76 2.52 2.44 2.74 3.14 3.50 3.43 3.25
2.13 2.21 2.45 2.56 2.91 3.10 3.12 3.17 3.11 3.05 2.91 2.97 2.97 2.96 2.94 2.84 2.73 2.78 2.54 2.34 2.56 2.68 2.85 3.01 2.97 3.04 3.08 3.06 2.95 2.63 2.46 2.35 2.09 2.16 2.28 2.43 2.59 2.20 2.60 3.14 3.33 3.15 3.15
2.46 2.66 2.98 3.08 3.02 3.11 3.29 3.41 3.22 3.13 3.01 2.93 2.84 2.84 2.74 2.65 2.64 2.91 2.71 2.67 2.77 2.96 2.87 2.67 3.03 3.15 3.11 3.11 2.81 2.68 2.35 2.24 2.16 2.05 2.11 2.20 2.39 2.35 2.38 2.54 2.97 2.87 3.09
2.74 3.04 3.18 3.27 3.48 3.76 3.94 3.83 3.58 3.20 2.92 2.80 2.69 2.57 2.52 2.57 2.60 2.86 2.65 2.67 2.85 3.07 3.12 3.10 3.21 3.16 3.03 3.10 2.72 2.53 2.24 1.96 1.92 1.87 1.75 1.92 2.01 1.83 1.92 2.11 2.47 2.19 2.43
2.71 2.89 3.11 3.50 3.88 3.99 3.86 3.79 3.70 3.36 3.06 2.74 2.45 2.41 2.50 2.44 2.51 2.78 2.52 2.80 2.93 3.00 3.12 3.15 3.28 3.17 2.99 3.15 3.03 2.55 2.07 1.79 1.64 1.51 1.55 1.67 1.64 1.70 1.93 2.23 2.49 2.52 2.28
2.55 2.80 3.14 3.45 3.80 3.77 3.88 4.04 3.94 3.68 3.10 2.75 2.56 2.44 2.43 2.43 2.42 2.53 2.83 2.85 2.94 3.03 3.04 2.99 3.01 2.83 2.63 2.97 3.02 2.82 2.23 1.86 1.51 1.29 1.49 1.50 1.60 1.82 1.88 1.90 2.20 2.54 2.43
2.65 3.04 3.25 3.47 3.59 3.65 3.80 3.89 3.57 3.35 2.90 2.74 2.71 2.53 2.42 2.49 2.52 2.62 2.79 2.87 2.80 2.72 2.77 2.86 2.77 2.65 2.47 2.59 2.82 2.84 2.37 1.92 1.57 1.32 1.32 1.38 1.68 1.86 1.82 1.82 1.80 1.93 2.01
2.65 3.09 3.47 3.47 3.45 3.39 3.52 3.61 3.39 3.04 2.75 2.61 2.59 2.38 2.24 2.20 2.25 2.36 2.43 2.58 2.64 2.60 2.60 2.54 2.51 2.53 2.48 2.36 2.55 2.58 2.44 2.22 1.98 1.52 1.25 1.27 1.51 1.63 1.61 1.50 1.59 1.80 1.90
2.33 2.67 3.04 3.30 3.33 3.20 3.16 3.19 3.21 2.98 2.65 2.45 2.36 2.23 2.17 2.17 2.04 2.04 2.14 2.32 2.35 2.26 2.25 2.38 2.57 2.54 2.39 2.26 2.36 2.43 2.55 2.48 2.20 1.89 1.47 1.34 1.32 1.25 1.35 1.39 1.44 1.52 1.71
2.14 2.42 2.63 2.82 2.88 2.82 2.74 2.74 2.79 2.72 2.60 2.37 2.18 2.18 2.19 2.10 1.93 1.87 1.89 1.99 2.03 2.03 2.00 2.04 2.17 2.23 2.21 2.31 2.34 2.32 2.42 2.41 2.30 2.18 1.79 1.54 1.40 1.11 1.15 1.22 1.33 1.39 1.47